Location: Antioch Baptist Church
(32.6696°N, 85.7327°W)
Time: 10:56:27
(UTC+00:00)

Terra - Pass Details

Date: 14 July 2020
Orbit: 701 x 703 km, 98.2° (Epoch: 09 August)

Event Time Altitude Azimuth Distance (km) Brightness Sun altitude
Exits shadow 03:56:52 55° 337° (NNW) 845 2.4 -29.5°
Drops below altitude 10° 04:00:36 10° 346° (NNW) 2,174 5.2 -29.9°
Sets 04:02:52 0° 347° (NNW) 3,095 6.2 -30.1°
